Home > Weather > Kunming > Past weeks

Flag for China Past Weather in Kunming, Yunnan, China — Yesterday and Last 2 Weeks

Now
72 °F

Passing clouds.


Feels Like: 74 °F
Forecast: 64 / 77 °F
Wind: 8 mph from Southwest

Location: Kunming Airport

Current Time: Jun 28, 2016 at 7:31:12 PM

Latest Report: Jun 28, 2016 at 7:00 PM


Visibility: N/A

Pressure: 30.07 "Hg (24.11 "Hg at 1909m altitude)

Humidity: 73%

Dew Point: 63 °F

Location of KunmingLocation

Past Weather in Kunming — Graph

°F

Kunming Temperature Yesterday

Maximum temperature yesterday: 79 °F (at 2:00 PM)
Minimum temperature yesterday: 64 °F (at 3:00 AM)
Average temperature yesterday: 71 °F

High & Low Weather Summary for the Past Weeks

 TemperatureHumidityPressure
High81 °F (Jun 25, 4:00 PM)100% (Jun 13, 8:00 PM)30.21 "Hg (Jun 13, 8:00 PM)
Low54 °F (Jun 16, 3:00 AM)45% (Jun 26, 5:00 PM)29.89 "Hg (Jun 14, 5:00 PM)
Average67 °F83%30.07 "Hg
* Reported Jun 13 6:00 PM — Jun 28 6:00 PM, Kunming, Weather by CustomWeather, © 2016

Note: Actual official high and low records may vary slightly from our data, if they occured in-between our weather recording intervals... More about our weather records

Advertising

Kunming Weather History for the Previous 24 Hours

Scroll right to see more
 ConditionsComfort  
Time TempWeatherWind HumidityBarometerVisibility
6:00 PM
Tue, Jun 28
72 °FPassing clouds.10 mph78%30.07 "HgN/A
5:00 PM72 °FPassing clouds.10 mph78%30.07 "HgN/A
4:00 PM68 °FSprinkles. Broken clouds.8 mph88%30.09 "HgN/A
3:00 PM66 °FSprinkles. Broken clouds.10 mph94%30.12 "Hg5 mi
2:00 PM75 °FScattered clouds.15 mph61%30.09 "HgN/A
1:00 PM75 °FScattered clouds.17 mph65%30.12 "HgN/A
12:00 PM73 °FBroken clouds.15 mph69%30.12 "HgN/A
11:00 AM70 °FMore clouds than sun.13 mph78%30.15 "HgN/A
10:00 AM68 °FMore clouds than sun.15 mph78%30.15 "HgN/A
9:00 AM66 °FOvercast.15 mph83%30.15 "HgN/A
8:00 AM66 °FOvercast.10 mph83%30.12 "HgN/A
7:00 AM66 °FOvercast.8 mph83%30.09 "HgN/A
6:00 AM66 °FPassing clouds.10 mph83%30.09 "HgN/A
5:00 AM66 °FPassing clouds.10 mph83%30.09 "HgN/A
4:00 AM66 °FPassing clouds.8 mph83%30.07 "HgN/A
3:00 AM66 °FPassing clouds.8 mph83%30.09 "HgN/A
2:00 AM66 °FPassing clouds.10 mph83%30.09 "HgN/A
1:00 AM66 °FPassing clouds.8 mph88%30.09 "HgN/A
12:00 AM68 °FPassing clouds.8 mph83%30.09 "HgN/A
11:00 PM
Mon, Jun 27
68 °FClear.10 mph78%30.09 "Hg10 mi
10:00 PM72 °FClear.8 mph65%30.07 "Hg10 mi
9:00 PM70 °FPassing clouds.13 mph73%30.07 "HgN/A
8:00 PM73 °FPassing clouds.8 mph65%30.04 "HgN/A
7:00 PM77 °FPassing clouds.13 mph51%30.04 "HgN/A
Weather by CustomWeather, © 2016

See weather overviewHow to use our weather pages